FW5778 Weather Reports


Display with metric or nautical units.
time (UTC)temp
F
wind
direction
speed
MPH
gust
MPH
rain 1hr
in
rain 24hr
in
rain mn
in
humidity
%
barometer
mb
20260904071542 73 149 4.0 17.0 0.00 0.00 0.00 16 1008.4
20260904071041 73 163 7.0 14.0 0.00 0.00 0.00 16 1008.4
20260904070541 73 158 6.0 18.0 0.00 0.00 0.00 16 1008.4
20260904070040 74 136 11.0 18.0 0.00 0.00 0.00 15 1008.3
20260904065539 74 146 6.0 16.0 0.00 0.00 0.00 15 1008.4
20260904065038 74 162 8.0 15.0 0.00 0.00 0.00 16 1008.4
20260904064537 73 143 6.0 18.0 0.00 0.00 0.00 16 1008.4
20260904064036 73 156 10.0 18.0 0.00 0.00 0.00 16 1008.3
20260904063535 72 127 4.0 11.0 0.00 0.00 0.00 20 1008.3
20260904063038 73 165 5.0 15.0 0.00 0.00 0.00 19 1008.2
20260904062532 74 145 4.0 15.0 0.00 0.00 0.00 17 1008.2
20260904062032 73 160 6.0 14.0 0.00 0.00 0.00 18 1008.1
20260904061540 74 109 4.0 14.0 0.00 0.00 0.00 18 1008.1
20260904061029 74 179 8.0 18.0 0.00 0.00 0.00 18 1008.0
20260904060528 75 129 5.0 22.0 0.00 0.00 0.00 16 1008.0
20260904060026 75 109 9.0 21.0 0.00 0.00 0.00 15 1007.9
20260904055525 75 143 8.0 21.0 0.00 0.00 0.00 16 1007.9
20260904055025 75 158 7.0 17.0 0.00 0.00 0.00 16 1007.9
20260904054527 75 165 5.0 17.0 0.00 0.00 0.00 16 1007.8
20260904054027 75 127 5.0 16.0 0.00 0.00 0.00 16 1007.8
20260904053528 75 158 9.0 16.0 0.00 0.00 0.00 16 1007.8
20260904053025 75 140 6.0 15.0 0.00 0.00 0.00 16 1007.8
20260904052525 75 173 7.0 13.0 0.00 0.00 0.00 16 1007.8
20260904052025 75 186 6.0 13.0 0.00 0.00 0.00 17 1007.7
20260904051524 75 158 4.0 13.0 0.00 0.00 0.00 16 1007.7
20260904051026 76 141 5.0 13.0 0.00 0.00 0.00 16 1007.8
20260904050524 76 147 6.0 14.0 0.00 0.00 0.00 16 1007.8
20260904050024 76 144 5.0 14.0 0.00 0.00 0.00 16 1007.8
20260904045524 76 166 5.0 14.0 0.00 0.00 0.00 16 1007.8
20260904045024 76 122 8.0 21.0 0.00 0.00 0.00 15 1007.9
20260904044536 77 151 8.0 21.0 0.00 0.00 0.00 15 1007.9
20260904044023 77 167 5.0 16.0 0.00 0.00 0.00 15 1007.9
20260904043523 77 166 6.0 18.0 0.00 0.00 0.00 15 1007.8
20260904043032 77 142 7.0 18.0 0.00 0.00 0.00 15 1007.9
20260904042523 77 144 8.0 19.0 0.00 0.00 0.00 15 1007.8
20260904042024 77 129 8.0 17.0 0.00 0.00 0.00 15 1007.8
20260904041523 76 227 6.0 16.0 0.00 0.00 0.00 16 1007.8
20260904041022 76 180 6.0 16.0 0.00 0.00 0.00 16 1007.7
20260904040522 76 131 6.0 14.0 0.00 0.00 0.00 16 1007.8
20260904040022 76 161 6.0 14.0 0.00 0.00 0.00 16 1007.8
20260904035522 76 150 5.0 14.0 0.00 0.00 0.00 16 1007.7
20260904035024 76 150 6.0 14.0 0.00 0.00 0.00 16 1007.6
20260904034521 76 181 5.0 11.0 0.00 0.00 0.00 16 1007.6
20260904034021 76 156 3.0 10.0 0.00 0.00 0.00 16 1007.5
20260904033522 76 167 4.0 11.0 0.00 0.00 0.00 16 1007.6
20260904033020 76 151 4.0 11.0 0.00 0.00 0.00 16 1007.6
20260904032520 76 194 3.0 10.0 0.00 0.00 0.00 16 1007.6
20260904032021 76 199 3.0 8.0 0.00 0.00 0.00 16 1007.6
20260904031520 77 158 3.0 10.0 0.00 0.00 0.00 16 1007.6
20260904031019 77 139 3.0 11.0 0.00 0.00 0.00 15 1007.6
20260904030520 77 201 3.0 11.0 0.00 0.00 0.00 16 1007.5
20260904030022 77 255 4.0 13.0 0.00 0.00 0.00 15 1007.5
20260904025519 77 150 4.0 13.0 0.00 0.00 0.00 15 1007.5
20260904025020 77 221 3.0 9.0 0.00 0.00 0.00 15 1007.5
20260904024519 77 198 2.0 7.0 0.00 0.00 0.00 15 1007.5
20260904024018 77 146 2.0 7.0 0.00 0.00 0.00 15 1007.5
20260904023519 78 138 3.0 10.0 0.00 0.00 0.00 15 1007.5
20260904023018 78 226 3.0 10.0 0.00 0.00 0.00 15 1007.5
20260904022518 78 167 3.0 12.0 0.00 0.00 0.00 15 1007.4
20260904022018 78 201 5.0 12.0 0.00 0.00 0.00 15 1007.3
20260904021523 78 198 3.0 9.0 0.00 0.00 0.00 15 1007.3
20260904021021 78 197 2.0 7.0 0.00 0.00 0.00 15 1007.3
20260904020517 79 198 2.0 11.0 0.00 0.00 0.00 15 1007.3
20260904020017 79 154 5.0 13.0 0.00 0.00 0.00 15 1007.2
20260904015518 79 184 4.0 13.0 0.00 0.00 0.00 15 1007.2
20260904015016 80 155 2.0 12.0 0.00 0.00 0.00 15 1007.3
20260904014516 80 139 3.0 16.0 0.00 0.00 0.00 14 1007.5
20260904014015 81 152 7.0 16.0 0.00 0.00 0.00 14 1007.5
20260904013514 81 155 6.0 14.0 0.00 0.00 0.00 14 1007.4
20260904013016 82 180 4.0 13.0 0.00 0.00 0.00 14 1007.5
20260904012516 82 157 6.0 15.0 0.00 0.00 0.00 14 1007.5
20260904012014 82 244 4.0 20.0 0.00 0.00 0.00 14 1007.5
20260904011514 82 148 8.0 20.0 0.00 0.00 0.00 13 1007.6
20260904011013 82 226 11.0 21.0 0.00 0.00 0.00 13 1007.6
20260904010513 82 219 8.0 21.0 0.00 0.00 0.00 13 1007.6
20260904010013 82 209 9.0 20.0 0.00 0.00 0.00 13 1007.6
20260904005512 82 131 8.0 19.0 0.00 0.00 0.00 13 1007.6
20260904005012 82 207 9.0 17.0 0.00 0.00 0.00 13 1007.6
20260904004512 81 272 7.0 22.0 0.00 0.00 0.00 14 1007.6
20260904004012 81 212 13.0 22.0 0.00 0.00 0.00 13 1007.7
20260904003513 81 201 7.0 15.0 0.00 0.00 0.00 14 1007.7
20260904003010 81 243 5.0 16.0 0.00 0.00 0.00 14 1007.7
20260904002513 81 203 7.0 15.0 0.00 0.00 0.00 15 1007.7
20260904002011 81 189 4.0 14.0 0.00 0.00 0.00 15 1007.7
20260904001509 81 181 6.0 18.0 0.00 0.00 0.00 15 1007.8
20260904001010 81 193 8.0 18.0 0.00 0.00 0.00 14 1007.8
20260904000510 81 162 5.0 16.0 0.00 0.00 0.00 15 1007.7
20260904000009 81 134 4.0 18.0 0.00 0.00 0.00 15 1007.7
20260903235509 81 224 7.0 18.0 0.00 0.00 0.00 14 1007.8
20260903235008 81 158 7.0 18.0 0.00 0.00 0.00 14 1008.0
20260903234520 82 165 5.0 18.0 0.00 0.00 0.00 15 1008.0
20260903234008 81 143 6.0 23.0 0.00 0.00 0.00 14 1007.9
20260903233507 82 154 6.0 23.0 0.00 0.00 0.00 14 1008.0
20260903233006 82 162 5.0 18.0 0.00 0.00 0.00 14 1008.0
20260903232506 82 155 6.0 13.0 0.00 0.00 0.00 14 1008.2
20260903232005 82 162 5.0 18.0 0.00 0.00 0.00 14 1008.2
20260903231504 82 176 7.0 18.0 0.00 0.00 0.00 13 1008.4
20260903231003 83 162 9.0 18.0 0.00 0.00 0.00 13 1008.4
20260903230502 83 148 8.0 18.0 0.00 0.00 0.00 13 1008.3
20260903230005 83 214 7.0 19.0 0.00 0.00 0.00 13 1008.4
20260903225502 83 222 9.0 24.0 0.00 0.00 0.00 12 1008.6
20260903225100 83 167 9.0 24.0 0.00 0.00 0.00 12 1008.7
20260903224600 84 217 6.0 23.0 0.00 0.00 0.00 13 1008.7
20260903224059 83 212 10.0 23.0 0.00 0.00 0.00 12 1008.7
20260903223558 83 212 8.0 22.0 0.00 0.00 0.00 12 1008.8
20260903223058 83 158 6.0 20.0 0.00 0.00 0.00 13 1008.8
20260903222602 83 153 9.0 23.0 0.00 0.00 0.00 11 1008.8
20260903222057 84 155 11.0 22.0 0.00 0.00 0.00 11 1008.9
20260903221558 84 231 4.0 25.0 0.00 0.00 0.00 13 1009.0
20260903221054 83 155 10.0 25.0 0.00 0.00 0.00 13 1009.1
20260903220554 83 118 9.0 19.0 0.00 0.00 0.00 13 1009.1
20260903220117 83 146 7.0 23.0 0.00 0.00 0.00 13 1009.1
20260903215554 82 148 11.0 23.0 0.00 0.00 0.00 14 1009.1
20260903215053 83 195 9.0 22.0 0.00 0.00 0.00 13 1009.3
20260903214552 82 130 8.0 19.0 0.00 0.00 0.00 12 1009.3
20260903214052 83 160 11.0 19.0 0.00 0.00 0.00 12 1009.5
20260903213554 83 129 6.0 18.0 0.00 0.00 0.00 13 1009.6
20260903213051 83 169 6.0 18.0 0.00 0.00 0.00 13 1009.5
20260903212550 83 147 7.0 20.0 0.00 0.00 0.00 14 1009.6
20260903212050 83 124 6.0 17.0 0.00 0.00 0.00 13 1009.5
20260903211551 83 141 9.0 14.0 0.00 0.00 0.00 12 1009.7
20260903211049 82 196 6.0 15.0 0.00 0.00 0.00 13 1009.8
20260903210547 82 222 8.0 20.0 0.00 0.00 0.00 12 1009.9
20260903210047 83 200 9.0 20.0 0.00 0.00 0.00 12 1010.1
20260903205545 82 158 7.0 15.0 0.00 0.00 0.00 13 1010.1
20260903205048 82 193 8.0 24.0 0.00 0.00 0.00 12 1010.0
20260903204545 82 122 10.0 24.0 0.00 0.00 0.00 13 1010.2
20260903204045 82 108 13.0 23.0 0.00 0.00 0.00 12 1010.3
20260903203545 82 229 7.0 18.0 0.00 0.00 0.00 13 1010.2
20260903203044 82 143 10.0 22.0 0.00 0.00 0.00 12 1010.3
20260903202546 82 180 11.0 22.0 0.00 0.00 0.00 13 1010.4
20260903202045 82 217 7.0 20.0 0.00 0.00 0.00 13 1010.5
20260903201543 82 164 9.0 20.0 0.00 0.00 0.00 13 1010.5
20260903201042 81 147 3.0 16.0 0.00 0.00 0.00 15 1010.6
20260903200540 81 181 7.0 21.0 0.00 0.00 0.00 14 1010.8
20260903200040 81 148 8.0 22.0 0.00 0.00 0.00 13 1010.8
20260903195542 80 141 10.0 25.0 0.00 0.00 0.00 14 1010.8
20260903195039 80 115 13.0 25.0 0.00 0.00 0.00 14 1010.8
20260903194538 80 134 7.0 17.0 0.00 0.00 0.00 15 1011.0
20260903194041 80 134 8.0 21.0 0.00 0.00 0.00 14 1011.0
20260903193537 80 139 10.0 21.0 0.00 0.00 0.00 14 1011.2
20260903193037 80 183 7.0 18.0 0.00 0.00 0.00 15 1011.2
20260903192536 79 123 10.0 22.0 0.00 0.00 0.00 15 1011.3
20260903192039 80 175 12.0 22.0 0.00 0.00 0.00 14 1011.4
20260903191549 80 148 9.0 19.0 0.00 0.00 0.00 15 1011.4
20260903191035 80 133 6.0 19.0 0.00 0.00 0.00 15 1011.5
20260903190534 80 117 6.0 16.0 0.00 0.00 0.00 15 1011.5
20260903190034 79 137 8.0 18.0 0.00 0.00 0.00 15 1011.6
20260903185533 79 134 9.0 20.0 0.00 0.00 0.00 15 1011.7
20260903185033 79 115 6.0 20.0 0.00 0.00 0.00 16 1011.8
20260903184542 79 117 10.0 17.0 0.00 0.00 0.00 15 1011.8
20260903184033 79 153 10.0 15.0 0.00 0.00 0.00 16 1011.9
20260903183532 79 148 10.0 24.0 0.00 0.00 0.00 15 1012.0
20260903183035 79 245 8.0 24.0 0.00 0.00 0.00 15 1012.1
20260903182533 78 125 7.0 17.0 0.00 0.00 0.00 15 1012.2
20260903182035 78 163 9.0 18.0 0.00 0.00 0.00 15 1012.2
20260903181530 78 184 9.0 18.0 0.00 0.00 0.00 14 1012.3
20260903181030 79 115 7.0 14.0 0.00 0.00 0.00 16 1012.3
20260903180529 78 225 7.0 14.0 0.00 0.00 0.00 16 1012.4
20260903180036 78 129 5.0 15.0 0.00 0.00 0.00 17 1012.6
20260903175526 77 129 9.0 15.0 0.00 0.00 0.00 15 1012.6
20260903175026 77 150 4.0 15.0 0.00 0.00 0.00 16 1012.6
20260903174524 77 98 6.0 15.0 0.00 0.00 0.00 17 1012.6
20260903174025 77 138 8.0 17.0 0.00 0.00 0.00 17 1012.7
20260903173523 77 121 6.0 15.0 0.00 0.00 0.00 18 1012.7
20260903173022 76 127 6.0 16.0 0.00 0.00 0.00 18 1012.5
20260903172527 76 172 6.0 16.0 0.00 0.00 0.00 16 1012.7
20260903172023 76 162 6.0 15.0 0.00 0.00 0.00 17 1012.7
20260903171521 76 134 4.0 17.0 0.00 0.00 0.00 18 1012.7
20260903171020 75 132 8.0 17.0 0.00 0.00 0.00 18 1012.6
20260903170519 75 136 8.0 15.0 0.00 0.00 0.00 18 1012.8
20260903170018 74 130 7.0 17.0 0.00 0.00 0.00 18 1012.9
20260903165518 74 120 9.0 18.0 0.00 0.00 0.00 18 1012.9
20260903165016 74 133 8.0 18.0 0.00 0.00 0.00 18 1013.0
20260903164517 74 191 5.0 17.0 0.00 0.00 0.00 19 1013.0
20260903164015 74 113 10.0 19.0 0.00 0.00 0.00 19 1012.8
20260903163514 73 127 11.0 19.0 0.00 0.00 0.00 18 1012.8
20260903163013 73 120 7.0 15.0 0.00 0.00 0.00 19 1012.8
20260903162512 73 134 6.0 19.0 0.00 0.00 0.00 20 1012.9
20260903162012 73 158 7.0 14.0 0.00 0.00 0.00 20 1012.9
20260903161510 73 153 4.0 17.0 0.00 0.00 0.00 21 1013.0
20260903161009 72 123 8.0 18.0 0.00 0.00 0.00 20 1013.0
20260903160509 72 155 8.0 18.0 0.00 0.00 0.00 20 1013.0
20260903160012 72 110 8.0 15.0 0.00 0.00 0.00 20 1013.1
20260903155510 72 167 10.0 15.0 0.00 0.00 0.00 21 1013.0
20260903155007 71 136 7.0 15.0 0.00 0.00 0.00 21 1013.0
20260903154505 71 191 7.0 15.0 0.00 0.00 0.00 21 1013.0
20260903154004 71 118 7.0 15.0 0.00 0.00 0.00 22 1013.0
20260903153504 71 216 9.0 15.0 0.00 0.00 0.00 22 1013.1
20260903153004 71 167 7.0 15.0 0.00 0.00 0.00 22 1013.2
20260903152506 71 151 6.0 13.0 0.00 0.00 0.00 22 1013.2
20260903152003 71 138 7.0 16.0 0.00 0.00 0.00 22 1013.2
20260903151502 70 127 9.0 16.0 0.00 0.00 0.00 20 1013.2
20260903151002 70 156 7.0 17.0 0.00 0.00 0.00 20 1013.2
20260903150501 70 153 5.0 17.0 0.00 0.00 0.00 19 1013.2
20260903150100 70 138 5.0 15.0 0.00 0.00 0.00 19 1013.2
20260903145559 70 155 8.0 15.0 0.00 0.00 0.00 19 1013.2
20260903145058 70 151 8.0 16.0 0.00 0.00 0.00 19 1013.1
20260903144557 69 141 7.0 16.0 0.00 0.00 0.00 19 1013.1
20260903144057 69 158 4.0 11.0 0.00 0.00 0.00 19 1013.0
20260903143555 69 153 5.0 14.0 0.00 0.00 0.00 19 1013.0
20260903143108 69 151 7.0 14.0 0.00 0.00 0.00 19 1013.1
20260903142555 68 136 5.0 21.0 0.00 0.00 0.00 20 1013.0
20260903142057 68 130 8.0 21.0 0.00 0.00 0.00 18 1013.0
20260903141552 68 151 6.0 14.0 0.00 0.00 0.00 19 1013.0
20260903141050 67 143 7.0 14.0 0.00 0.00 0.00 19 1013.0
20260903140550 67 211 4.0 14.0 0.00 0.00 0.00 21 1012.9
20260903140050 66 160 4.0 10.0 0.00 0.00 0.00 20 1013.0
20260903135550 65 172 3.0 12.0 0.00 0.00 0.00 22 1013.0
20260903135050 63 135 4.0 12.0 0.00 0.00 0.00 23 1013.0
20260903134548 60 179 2.0 6.0 0.00 0.00 0.00 27 1012.9
20260903134047 58 245 1.0 2.0 0.00 0.00 0.00 35 1012.9
20260903133546 57 268 1.0 4.0 0.00 0.00 0.00 35 1012.9
20260903133046 56 172 0.0 4.0 0.00 0.00 0.00 36 1012.9
20260903132545 55 252 0.0 1.0 0.00 0.00 0.00 41 1012.8
20260903132045 55 281 0.0 1.0 0.00 0.00 0.00 43 1012.7
20260903131602 55 227 0.0 1.0 0.00 0.00 0.00 42 1012.6
20260903131042 55 207 0.0 1.0 0.00 0.00 0.00 45 1012.5
20260903130545 56 234 0.0 1.0 0.00 0.00 0.00 40 1012.4
20260903130044 56 234 0.0 2.0 0.00 0.00 0.00 43 1012.3
20260903125544 56 221 0.0 2.0 0.00 0.00 0.00 42 1012.4
20260903125042 55 206 0.0 2.0 0.00 0.00 0.00 45 1012.4
20260903124542 54 206 0.0 1.0 0.00 0.00 0.00 44 1012.3
20260903124043 54 245 0.0 0.0 0.00 0.00 0.00 43 1012.3
20260903123541 54 245 0.0 0.0 0.00 0.00 0.00 45 1012.3
20260903123044 54 245 0.0 0.0 0.00 0.00 0.00 44 1012.3
20260903122540 54 245 0.0 1.0 0.00 0.00 0.00 45 1012.2
20260903122039 54 245 0.0 1.0 0.00 0.00 0.00 42 1012.1
20260903121537 54 245 0.0 1.0 0.00 0.00 0.00 44 1012.0
20260903121037 55 245 0.0 1.0 0.00 0.00 0.00 43 1012.0
20260903120538 55 317 0.0 0.0 0.00 0.00 0.00 43 1012.0
20260903120038 55 332 0.0 0.0 0.00 0.00 0.00 42 1012.0
20260903115534 55 13 0.0 2.0 0.00 0.00 0.00 41 1012.0
20260903115032 56 13 0.0 2.0 0.00 0.00 0.00 40 1011.9
20260903114531 57 191 0.0 1.0 0.00 0.00 0.00 39 1011.9
20260903114030 57 207 0.0 1.0 0.00 0.00 0.00 36 1011.8
20260903113532 58 207 0.0 0.0 0.00 0.00 0.00 32 1011.8
20260903113039 57 205 0.0 1.0 0.00 0.00 0.00 33 1011.7
20260903112531 58 205 0.0 1.0 0.00 0.00 0.00 33 1011.8
20260903112029 58 215 0.0 2.0 0.00 0.00 0.00 30 1011.7
20260903111529 58 236 0.0 2.0 0.00 0.00 0.00 34 1011.8
20260903111032 58 174 0.0 3.0 0.00 0.00 0.00 34 1011.8
20260903110528 58 225 0.0 3.0 0.00 0.00 0.00 33 1011.7
20260903110031 58 264 0.0 2.0 0.00 0.00 0.00 34 1011.7
20260903105527 58 220 0.0 2.0 0.00 0.00 0.00 34 1011.7
20260903105026 58 240 0.0 2.0 0.00 0.00 0.00 32 1011.7
20260903104526 58 195 0.0 2.0 0.00 0.00 0.00 33 1011.6
20260903104025 57 227 0.0 2.0 0.00 0.00 0.00 39 1011.6
20260903103525 57 216 0.0 1.0 0.00 0.00 0.00 36 1011.6
20260903103025 57 237 0.0 1.0 0.00 0.00 0.00 40 1011.6
20260903102524 58 240 0.0 2.0 0.00 0.00 0.00 37 1011.5
20260903102025 58 240 0.0 2.0 0.00 0.00 0.00 38 1011.4
20260903101524 58 237 0.0 3.0 0.00 0.00 0.00 39 1011.4
20260903101021 59 219 1.0 3.0 0.00 0.00 0.00 38 1011.4
20260903100520 59 270 0.0 3.0 0.00 0.00 0.00 40 1011.3
20260903100022 58 210 0.0 2.0 0.00 0.00 0.00 40 1011.3
20260903095518 58 249 1.0 2.0 0.00 0.00 0.00 39 1011.3
20260903095021 59 212 0.0 2.0 0.00 0.00 0.00 39 1011.1
20260903094517 59 236 0.0 3.0 0.00 0.00 0.00 39 1011.1
20260903094018 59 254 1.0 3.0 0.00 0.00 0.00 39 1011.1
20260903093516 59 234 1.0 3.0 0.00 0.00 0.00 38 1011.1
20260903093014 59 245 1.0 4.0 0.00 0.00 0.00 38 1011.1
20260903092516 59 218 1.0 4.0 0.00 0.00 0.00 38 1011.1
20260903092012 60 210 1.0 3.0 0.00 0.00 0.00 38 1011.0
20260903091517 60 232 1.0 3.0 0.00 0.00 0.00 37 1011.0
20260903091011 61 224 1.0 2.0 0.00 0.00 0.00 35 1011.0
20260903090511 61 152 0.0 2.0 0.00 0.00 0.00 34 1011.0
20260903090011 61 305 0.0 3.0 0.00 0.00 0.00 34 1010.9
20260903085511 60 274 0.0 4.0 0.00 0.00 0.00 33 1011.0
20260903085010 60 279 2.0 4.0 0.00 0.00 0.00 36 1011.0
20260903084519 60 213 0.0 3.0 0.00 0.00 0.00 38 1011.1
20260903084010 60 259 0.0 2.0 0.00 0.00 0.00 38 1011.0
20260903083509 61 280 0.0 2.0 0.00 0.00 0.00 38 1011.1
20260903083012 61 240 0.0 1.0 0.00 0.00 0.00 38 1011.0
20260903082509 61 280 0.0 2.0 0.00 0.00 0.00 38 1011.1
20260903082009 62 265 1.0 2.0 0.00 0.00 0.00 36 1011.0
20260903081513 62 274 1.0 1.0 0.00 0.00 0.00 35 1011.0
20260903081008 61 257 0.0 2.0 0.00 0.00 0.00 37 1011.0
20260903080508 60 242 0.0 2.0 0.00 0.00 0.00 42 1011.0
20260903080006 61 60 0.0 0.0 0.00 0.00 0.00 40 1010.9
20260903075505 61 60 0.0 0.0 0.00 0.00 0.00 39 1010.9
20260903075004 61 63 0.0 0.0 0.00 0.00 0.00 38 1010.9
20260903074503 62 63 0.0 0.0 0.00 0.00 0.00 37 1010.8
20260903074001 63 63 0.0 0.0 0.00 0.00 0.00 38 1010.8
20260903073502 63 63 0.0 0.0 0.00 0.00 0.00 35 1010.8
20260903073101 63 63 0.0 0.0 0.00 0.00 0.00 37 1010.7
20260903072601 63 63 0.0 0.0 0.00 0.00 0.00 35 1010.6
20260903072101 64 63 0.0 0.0 0.00 0.00 0.00 33 1010.6